Simultaneous Nadir Overpasses (SNOs) Predictions

Prediction of SNOs between METOP-B and TERRA Satellite Orbit:

Table of predicted SNOs for the next 14.0 days since TLE Epoch: 8/31/2019
Index Date (METOP-B) Time (METOP-B) Lat,Lon (METOP-B) SZA (METOP-B ) Date (TERRA) Time (TERRA) Lat,Lon (TERRA) SZA (TERRA ) Distance(km) Time Diff (sec)
1 08/31/2019 13:02:37 -81.28,-150.41 104.75 08/31/2019 13:03:51 -81.22,-150.29 104.74 7.26 74
2 08/31/2019 13:53:12 81.32, 19.21 75.55 08/31/2019 13:53:13 81.31, 19.04 75.53 2.95 1
3 08/31/2019 14:43:52 -81.32,-173.18 104.41 08/31/2019 14:42:39 -81.33,-173.11 104.43 1.37 73
4 09/03/2019 08:36:54 -81.31, -82.46 103.52 09/03/2019 08:38:00 -81.31, -82.27 103.46 3.28 66
5 09/03/2019 09:27:33 81.32, 85.56 76.59 09/03/2019 09:27:26 81.32, 85.54 76.58 0.39 7
6 09/06/2019 04:11:15 -81.31, -15.69 102.41 09/06/2019 04:12:14 -81.31, -15.77 102.39 1.27 59
7 09/06/2019 05:01:55 81.32, 151.89 77.64 09/06/2019 05:01:40 81.32, 152.01 77.64 2.11 15
8 09/08/2019 23:45:37 -81.31, 50.67 101.34 09/08/2019 23:46:28 -81.31, 50.71 101.31 0.64 51
9 09/09/2019 00:36:16 81.32,-141.40 78.75 09/09/2019 00:35:54 81.32,-141.55 78.72 2.44 22
10 09/11/2019 19:19:58 -81.31, 117.02 100.26 09/11/2019 19:20:41 -81.31, 117.15 100.23 2.19 43




NCC Satellite Simultaneous Nadir Overpasses (SNOs) Prediction Service
